Welcome to the New NWS' Forecast!
Most changes are behind the scenes, but click here for differences you might notice.

Regional Weather Roundup (RWR)

Issued by Little Rock, AR (LZK)

                            
786 
ASUS44 KLZK 201405
RWRLZK

WEATHER ROUNDUP FOR ARKANSAS
NATIONAL WEATHER SERVICE LITTLE ROCK AR
900 AM CDT FRI OCT 20 2017

NOTE: "FAIR" INDICATES FEW OR NO CLOUDS BELOW 12,000 FEET WITH NO
SIGNIFICANT WEATHER AND/OR OBSTRUCTIONS TO VISIBILITY.

ARZ001-003-010-029-201500-
NORTHWEST ARKANSAS
  
CITY           SKY/WX    TMP DP  RH WIND       PRES   REMARKS
FAYETTEVILLE   PTSUNNY   55  54  96 CALM      30.18R                  
FORT SMITH     CLOUDY    60  56  86 E6        30.17R                  
HARRISON       MOSUNNY   56  51  84 CALM      30.19R                  
BENTONVILLE    MOSUNNY   57  52  83 SE8       30.19R                  
ROGERS         CLOUDY    56  53  90 SE8       30.18R                  
SILOAM SPGS    MOSUNNY   56  52  86 SE7       30.17R                  
HIGHFILL       PTSUNNY   54  52  93 S5        30.17R                  
SPRINGDALE     PTSUNNY   59  54  82 SE5       30.19R                  
$$

ARZ004-005-016-201500-
NORTH CENTRAL ARKANSAS
  
CITY           SKY/WX    TMP DP  RH WIND       PRES   REMARKS
BATESVILLE     CLOUDY    57  53  86 E3        30.23R                  
FLIPPIN        MOSUNNY   51  49  92 CALM      30.20S                  
MTN HOME       MOSUNNY   55  53  93 E5        30.19R                  
$$

ARZ040-041-201500-
WEST CENTRAL ARKANSAS
  
CITY           SKY/WX    TMP DP  RH WIND       PRES   REMARKS
MENA           CLOUDY    57  55  94 CALM      30.18S                  
$$

ARZ009-017-025-026-028-201500-
NORTHEAST ARKANSAS
  
CITY           SKY/WX    TMP DP  RH WIND       PRES   REMARKS
JONESBORO      PTSUNNY   55  54  96 E6        30.24R                  
NEWPORT        CLOUDY    55  53  93 E3        30.24R                  
WALNUT RIDGE     N/A     52  50  93 MISG        N/A                   
BLYTHEVILLE    CLOUDY    59  56  89 SE5       30.27R                  
NW BLYTHEVILLE MOSUNNY   61  52  72 S3        30.26R                  
$$

ARZ022-023-033-042-044-201500-
CENTRAL ARKANSAS
  
CITY           SKY/WX    TMP DP  RH WIND       PRES   REMARKS
LITTLE ROCK    CLOUDY    56  55  97 CALM      30.22R                  
N LITTLE ROCK    N/A     57  53  88 CALM      30.23R                  
JACKSONVILLE   CLOUDY    52  51  96 CALM      30.21R                  
SEARCY         CLOUDY    53  53 100 CALM      30.23R                  
HOT SPRINGS    PTSUNNY   61  56  83 E6        30.20R                  
RUSSELLVILLE   CLOUDY    54  53  97 CALM      30.20R                  
CLINTON        FAIR      48  46  93 CALM      30.23R                  
$$

ARZ036-201500-
EAST ARKANSAS
  
CITY           SKY/WX    TMP DP  RH WIND       PRES   REMARKS
WEST MEMPHIS   CLOUDY    59  56  89 SE6       30.23S                  
$$

ARZ050-053-066-070-073-201500-
SOUTHWEST ARKANSAS
  
CITY           SKY/WX    TMP DP  RH WIND       PRES   REMARKS
ARKADELPHIA    FAIR      55  53  93 CALM      30.21R                  
CAMDEN         CLOUDY    57  54  88 CALM      30.19R                  
TEXARKANA      CLOUDY    57  56  96 E5        30.16R                  
EL DORADO      CLOUDY    60  60 100 E5        30.18S                  
DE QUEEN       CLOUDY    61  58  90 E5        30.15R                  
$$

ARZ056-057-069-201500-
SOUTHEAST ARKANSAS
  
CITY           SKY/WX    TMP DP  RH WIND       PRES   REMARKS
PINE BLUFF     CLOUDY    59  54  83 SE5       30.22R                  
STUTTGART      CLOUDY    61  56  83 SE7       30.23R                  
MONTICELLO     MOSUNNY   59  55  87 E3        30.22R                  

$$